Location: Makanda
(37.6176°N, 89.2090°W)
Time: 16:29:08
(UTC+00:00)

Gbstr 26 Del rocket - Pass Details

Date: 23 September 2019
Orbit: 493 x 1264 km, 51.8° (Epoch: 15 October)

Event Time Altitude Azimuth Distance (km) Brightness Sun altitude
Rises 10:51:09 0° 308° (NW) 4,220 6.9 -11.5°
Reaches altitude 10° 10:54:04 10° 306° (NW) 3,249 6.3 -10.9°
Maximum altitude 11:02:06 67° 226° (SW) 1,291 4.5 -9.4°
Drops below altitude 10° 11:09:19 10° 145° (SE) 2,928 6.9 -7.9°
Sets 11:11:51 0° 143° (SE) 3,784 7.5 -7.4°
